Location: Poughquag
(41.6090°N, 73.6820°W)
Time: 20:32:02
(UTC-05:00)

N. Korean satellite - Pass Details

Date: 29 January 2021
Orbit: 451 x 503 km, 97.2° (Epoch: 24 February)

Event Time Altitude Azimuth Distance (km) Brightness Sun altitude
Rises 04:14:57 0° 36° (NE) 2,483 10.7 -32.7°
Reaches altitude 10° 04:18:33 10° 76° (ENE) 1,592 10.0 -32.0°
Maximum altitude 04:19:23 11° 91° (E) 1,546 10.0 -31.9°
Drops below altitude 10° 04:20:13 10° 105° (ESE) 1,586 9.9 -31.7°
Sets 04:23:45 0° 145° (SE) 2,446 10.5 -31.0°
